Flag for U.S.A. Weather past 2 weeks in Duluth, Minnesota, U.S.A.

Now
66 °F

Clear.


Feels Like: 66 °F
Forecast: 56 / 79 °F
Wind: No wind

Location: Sky Harbor Airport

Current Time: Jul 31, 2014 at 12:55:59 AM

Latest Report: Jul 31, 2014 at 12:34 AM


Visibility: 10 mi

Pressure: 29.99 "Hg

Humidity: 78%

Dew point: 59 °F

Location of DuluthLocation

Historic Weather in Duluth — Graph

°F

Duluth temperature yesterday

Maximum temperature yesterday: 81 °F (at 4:53 PM)
Minimum temperature yesterday: 55 °F (at 3:54 AM)
Average temperature yesterday: 66 °F

Past Weeks' High & Low Weather Summary

 TemperatureHumidityPressure
High91 °F (Jul 21, 3:13 PM)100% (Jul 27, 8:33 AM)30.26 "Hg (Jul 27, 8:33 AM)
Low48 °F (Jul 16, 4:34 AM)35% (Jul 26, 3:13 PM)29.68 "Hg (Jul 22, 4:13 AM)
Average66 °F78%29.96 "Hg
* Reported Jul 15 11:13 PM — Jul 30 11:33 PM, Duluth, Weather by CustomWeather, © 2014

Note: Actual official high and low records may vary slightly from our data, if they occured in-between our weather recording intervals... More about our weather records

Advertising

Duluth weather history for previous 24 hours

 ConditionsComfort  
Time TempWeatherWind HumidityBarometerVisibility
11:33 PM
Jul 30
70 °FPassing clouds.9 mph73%29.98 "Hg10 mi
11:13 PM70 °FPassing clouds.8 mph73%29.98 "Hg10 mi
10:53 PM70 °FClear.8 mph73%29.98 "Hg10 mi
10:33 PM72 °FPassing clouds.7 mph69%29.98 "Hg10 mi
9:53 PM72 °FMostly cloudy.8 mph69%29.98 "Hg10 mi
9:33 PM72 °FScattered clouds.10 mph73%29.97 "Hg10 mi
9:14 PM73 °FMostly cloudy.9 mph69%29.97 "Hg10 mi
8:53 PM73 °FPartly sunny.6 mph69%29.96 "Hg10 mi
8:33 PM73 °FSunny.8 mph65%29.96 "Hg10 mi
8:14 PM73 °FScattered clouds.9 mph69%29.96 "Hg10 mi
7:53 PM75 °FScattered clouds.7 mph65%29.96 "Hg10 mi
7:33 PM77 °FScattered clouds.9 mph61%29.96 "Hg10 mi
6:53 PM77 °FSunny.12 mph57%29.96 "Hg10 mi
6:33 PM77 °FSunny.15 mph57%29.95 "Hg10 mi
6:13 PM79 °FSunny.18 mph54%29.95 "Hg10 mi
5:53 PM79 °FSunny.16 mph54%29.95 "Hg10 mi
5:34 PM79 °FThundershowers. Sunny.17 mph54%29.95 "Hg10 mi
5:13 PM81 °FSunny.17 mph51%29.96 "Hg10 mi
4:53 PM81 °FSunny.16 mph48%29.96 "Hg10 mi
4:34 PM79 °FScattered clouds.16 mph54%29.96 "Hg10 mi
4:13 PM79 °FScattered clouds.16 mph54%29.96 "Hg10 mi
3:53 PM79 °FScattered clouds.17 mph54%29.95 "Hg10 mi
3:34 PM77 °FScattered clouds.3 mph65%29.96 "Hg10 mi
3:13 PM73 °FScattered clouds.No wind74%29.97 "Hg10 mi
2:54 PM68 °FThunderstorms. Scattered clouds.3 mph83%29.97 "Hg10 mi
2:33 PM66 °FScattered clouds.6 mph94%29.99 "Hg10 mi
2:14 PM63 °FMild.No windN/A29.99 "HgN/A
1:53 PM75 °FLight rain. Scattered clouds.7 mph69%30.00 "Hg10 mi
1:33 PM75 °FScattered clouds.7 mph65%30.00 "Hg10 mi
12:54 PM73 °FSunny.7 mph69%30.02 "Hg10 mi
12:33 PM73 °FSunny.9 mph69%30.03 "Hg10 mi
12:13 PM73 °FSunny.7 mph69%30.04 "Hg10 mi
11:53 AM72 °FSunny.8 mph73%30.04 "Hg10 mi
11:33 AM70 °FSunny.7 mph73%30.05 "Hg10 mi
11:14 AM70 °FSunny.7 mph73%30.05 "Hg10 mi
10:53 AM68 °FSunny.7 mph78%30.05 "Hg10 mi
10:33 AM66 °FSunny.6 mph83%30.06 "Hg10 mi
10:14 AM64 °FSunny.6 mph83%30.06 "Hg10 mi
9:53 AM63 °FSunny.5 mph88%30.07 "Hg10 mi
9:34 AM63 °FSunny.3 mph83%30.07 "Hg10 mi
9:14 AM61 °FSunny.No wind88%30.07 "Hg10 mi
8:53 AM61 °FSunny.No wind88%30.08 "Hg10 mi
8:34 AM59 °FSunny.3 mph88%30.08 "Hg10 mi
8:14 AM57 °FSunny.3 mph94%30.08 "Hg10 mi
7:53 AM57 °FSunny.No wind94%30.09 "Hg10 mi
7:34 AM57 °FSunny.No wind94%30.09 "Hg10 mi
7:14 AM57 °FSunny.No wind94%30.09 "Hg10 mi
6:53 AM55 °FSunny.No wind100%30.09 "Hg10 mi
6:34 AM55 °FClear.No wind94%30.09 "Hg10 mi
6:13 AM55 °FClear.No wind94%30.08 "Hg7 mi
5:54 AM55 °FClear.No wind94%30.08 "Hg10 mi
5:33 AM55 °FClear.No wind94%30.08 "Hg10 mi
5:13 AM55 °FClear.No wind94%30.08 "Hg10 mi
4:54 AM55 °FClear.No wind94%30.08 "Hg10 mi
4:33 AM55 °FClear.No wind94%30.07 "Hg10 mi
3:54 AM55 °FClear.3 mph94%30.07 "Hg10 mi
3:33 AM57 °FClear.No wind94%30.07 "Hg10 mi
3:13 AM57 °FClear.No wind94%30.06 "Hg10 mi
2:54 AM57 °FClear.No wind94%30.06 "Hg10 mi
2:33 AM57 °FClear.No wind94%30.06 "Hg10 mi
2:13 AM57 °FClear.No wind94%30.06 "Hg10 mi
1:54 AM57 °FClear.No wind94%30.06 "Hg10 mi
1:33 AM57 °FClear.3 mph94%30.06 "Hg10 mi
1:13 AM57 °FClear.3 mph94%30.06 "Hg10 mi
12:54 AM57 °FClear.3 mph94%30.06 "Hg10 mi
12:33 AM57 °FClear.5 mph94%30.05 "Hg10 mi
12:13 AM59 °FClear.6 mph94%30.05 "Hg10 mi
Weather by CustomWeather, © 2014

See weather overviewHow to use our weather pages